Tracking 35334 objects as of 13-Sep-2026
HD Live streaming from Space Station
objects crossing your sky now

STARLINK-33814

Track STARLINK-33814 now!
10-day predictions
STARLINK-33814 is classified as:


NORAD ID: 63582
Int'l Code: 2025-076P
Launch date: April 14, 2025
Source: United States (US)
Launch site: AIR FORCE EASTERN TEST RANGE (AFETR)
Your satellite tracking list
Your tracking list is empty




NASA's NSSDC Master Catalog

Two Line Element Set (TLE):
1 63582U 25076P   26256.28496603  .00010360  00000-0  38540-3 0  9996
2 63582  43.0046 341.9993 0002225 279.7568  80.3033 15.27586567 80520
Source of the keplerian elements: AFSPC